Location: Ca��n la Puerta
(32.5440°N, 116.6804°W)
Time: 02:18:39
(UTC+00:00)

BREEZE-M DEB (TANK) - Pass Details

Date: 15 June 2021
Orbit: 431 x 13231 km, 46.0° (Epoch: 02 August)

Event Time Altitude Azimuth Distance (km) Brightness Sun altitude
Exits shadow 12:07:17 - 252° (WSW) 2,784 5.8 -6.6°
Reaches altitude 10° 12:08:19 10° 255° (WSW) 2,289 5.4 -6.4°
Maximum altitude 12:12:22 38° 326° (NW) 752 3.5 -5.7°
Drops below altitude 10° 12:15:05 10° 39° (NE) 1,528 6.5 -5.2°
Sets 12:17:03 0° 48° (NE) 2,474 8.5 -4.8°
